DMSP 5D-2 F13 DEB, 40583

Orbit data source: Space-Track

DMSP 5D-2 F13 DEB, 40583 is space debris in SSO originally from a launch on Fri, 24 Mar 1995 UTC launched from the Air Force Western Test Range (AFWTR). Debris objects in space refer to the collection of defunct objects orbiting the Earth. Examples of debris include non-operational satellites, rocket bodies, and fragments generated from explosions, collisions, or faulty payload assembly.

Loading next visibility...
Identifier
40583, 1995-015ES
Orbit
SSO
Country
Flag of USUS
Related business
Manufacturer
Unknown
Mission
Spacecraft
Bus & Motor
Unknown
Mass
Unknown
Launch date (UTC)
1995-03-24 (31 years ago)
Launch vehicle
Unknown
Launch site
Air Force Western Test Range (AFWTR)
Object type
Payload
Rocket body
Debris
Shape & HBR
Unknown shape, 0.1 m
Radar Cross Section
Small (<0.1 m²)

Expand to show TLE details & history
Last TLE update: 1 day ago

TLE from 1 day ago
0 DMSP 5D-2 F13 DEB
1 40583U 95015ES  25340.48546827  .00022684  00000-0  47832-2 0  9996
2 40583  98.6024  64.1054 0025376 316.9778  42.9436 14.59213331558542
Epoch: 2025-12-06T11:39Z
TLE epoch observation values (Epoch: 2025-12-06T11:39:04.458Z)
Latitude
-0.00003°
Longitude
173.8243°
Altitude
685.565 km
Speed
7.521 km/s
True Right ascension
04h 16m 25s
True Declination
0° 00' 00"
Sunlit
Object was in full shadow at epoch
Visualization orbit readout
Latitude
Unknown
Longitude
Unknown
Altitude
Unknown
Speed
Unknown
Apparent Right ascension
Unknown
Apparent Declination
Unknown
Sunlit
N/A
Visualization observer readout
Local Sidereal Time
14:29:57
Azimuth
Unknown
Elevation
Unknown
Doppler factor
Unknown
Orbital elements
Apogee altitude
710.76 km
Perigee altitude
674.873 km
Semi-major axis
7,070.953 km
Eccentricity
0.00254
Inclination
98.6024°
RAAN
64.1054°
Arg. of periapsis
316.9778°
True anomaly
43.14217°
Mean anomaly
42.9436°
Eccentric anomaly
43.04284°
Mean motion
3.65028 °/min
Orbital period
98.62 mins
BSTAR
0.0047832
Loading maneuver chart data...
Computing Atmospheric mass density...

Documentation

Showing up to 5 results
|